Location: Pian di Sc�
(43.6333°N, 11.5500°E)
Time: 17:55:01
(UTC+00:00)

DNEPR-1 R/B - Pass Details

Date: 07 August 2020
Orbit: 572 x 1350 km, 64.6° (Epoch: 19 September)

Event Time Altitude Azimuth Distance (km) Brightness Sun altitude
Rises 01:20:10 0° 325° (NW) 3,610 7.8 -24.0°
Reaches altitude 10° 01:22:57 10° 326° (NW) 2,534 6.9 -23.7°
Maximum altitude 01:28:43 87° 57° (ENE) 755 3.9 -23.2°
Enters shadow 01:31:09 30° 144° (SE) 1,238 4.9 -22.9°
